Portada
METAR-TAF:

METAR-TAF

Aeroports :

Charleville, Austràlia

latitud: 26-24-45S, longitud: 146-15-44E, altitud: 306 m

Observació

L'informe es va fer fa 1 hora i 0 minuts, a les 16:00 UTC
Vent calma
Temperatura 17°C
Humitat 63%
Pressió 1020 hPa
Visibilitat 10 km o més

METAR: YBCV 191600Z AUTO 00000KT 9999 // NCD 17/10 Q1020

Hora: 03:00 (17:00 UTC)


TAF: manca

Observacions i pronòstics meteorològics de més de 4000 aeroports (METAR i TAF).

Les estacions disponibles són els punts grocs i vermells al mapa.

Posi el ratolí al punt desitjat per veure el nom de l'estació.

Feu clic per veure les observacions i els pronòstics meteorològics.

Per canviar el mapa: feu clic els botons verds amb una creu de color negre per apropar; al botó verd amb un guió per allunyar la imatge; o en les fletxes verdes per a mapes adjacents.


METAR-TAF: